COSMOS 2251 DEB, 35674

Orbit data source: Space-Track

COSMOS 2251 DEB, 35674 is space debris in LEO originally from a launch on Wed, 16 Jun 1993 UTC launched from the Plesetsk Missile And Space Complex (PKMTR). The debris from Iridium 33, an American commercial communications satellite, has been tracked extensively since its accidental collision with the defunct Russian satellite Cosmos 2251 in 2009. This event, occurring at high speed in low Earth orbit (LEO), generated thousands of pieces of space debris, significantly increasing the risk of further collisions. The Iridium 33 debris cloud has impacted space traffic management and orbital debris mitigation strategies, making it a subject of ongoing study in space situational awareness.

Loading next visibility...
Identifier
35674, 1993-036APR
Orbit
LEO
Country
Flag of CISCIS
Related business
Manufacturer
Unknown
Mission
Spacecraft
Bus & Motor
Unknown
Mass
Unknown
Launch date (UTC)
1993-06-16 (32 years ago)
Launch vehicle
Unknown
Launch site
Plesetsk Missile And Space Complex (PKMTR)
Object type
Payload
Rocket body
Debris
Shape & HBR
Unknown shape, 0.1 m
Radar Cross Section
Small (<0.1 m²)

Expand to show TLE details & history
Last TLE update: 4 hours ago

TLE from 4 hours ago
0 COSMOS 2251 DEB
1 35674U 93036APR 25308.63469715  .00004703  00000-0  10659-2 0  9992
2 35674  74.0621  28.4173 0095891  83.8338 277.3738 14.53537978855576
Epoch: 2025-11-04T15:13Z
TLE epoch observation values (Epoch: 2025-11-04T15:13:57.833Z)
Latitude
-0.0001°
Longitude
115.8074°
Altitude
708.664 km
Speed
7.506 km/s
True Right ascension
01h 53m 40s
True Declination
0° 00' 00"
Sunlit
Object was in full shadow at epoch
Visualization orbit readout
Latitude
Unknown
Longitude
Unknown
Altitude
Unknown
Speed
Unknown
Apparent Right ascension
Unknown
Apparent Declination
Unknown
Sunlit
N/A
Visualization observer readout
Local Sidereal Time
15:31:12
Azimuth
Unknown
Elevation
Unknown
Doppler factor
Unknown
Orbital elements
Apogee altitude
779.704 km
Perigee altitude
643.733 km
Semi-major axis
7,089.856 km
Eccentricity
0.00959
Inclination
74.0621°
RAAN
28.4173°
Arg. of periapsis
83.8338°
True anomaly
276.28244°
Mean anomaly
277.3738°
Eccentric anomaly
276.82828°
Mean motion
3.63569 °/min
Orbital period
99.02 mins
BSTAR
0.0010659

Documentation

Showing up to 5 results
|